Location: LDNL
(36.4545°S, 141.6685°E)
Time: 23:10:12
(UTC+11:00)

ISS - Pass Details

Date: 09 December 2021
Orbit: 413 x 422 km, 51.6° (Epoch: 22 January)

Event Time Altitude Azimuth Distance (km) Brightness Sun altitude
Exits shadow 01:37:51 14° 181° (S) 1,300 -0.5 -30.7°
Drops below altitude 10° 01:38:51 10° 165° (SSE) 1,514 -0.1 -30.7°
Sets 01:41:34 0° 143° (SE) 2,384 0.9 -30.6°
